User: anonymous   Login
Location: Prague
(50.0830°N, 14.4670°E)
Time: 11:58:43
(UTC+01:00)
Language:

XW-2F - Orbit

View from above orbital plane
View from above orbital plane
View from above satellite
View from above satellite

Ground track
Ground track

The orbit data is extracted from the following two-line orbital elements,

1 40910U 15049M   21335.12678846  .00003343  00000-0  15868-3 0  9993
2 40910  97.4749 338.6657 0012859 314.8443 110.2898 15.19884920343035
Epoch (UTC): 01 December 2021 03:02:34
Eccentricity: 0.0012859
inclination: 97.4749°
perigee height: 497 km
apogee height: 515 km
right ascension of ascending node: 338.6657°
argument of perigee: 314.8443°
revolutions per day: 15.19884920
mean anomaly at epoch: 110.2898°
orbit number at epoch: 34303

The dashed part of the orbit path shows where the satellite is in the earth's shadow,  

DLR